Time,TemperatureF,DewpointF,PressureIn,WindDirection,WindDirectionDegrees,WindSpeedMPH,WindSpeedGustMPH,Humidity,HourlyPrecipIn,Conditions,Clouds,dailyrainin,SolarRadiationWatts/m^2,SoftwareType,DateUTC
2013-07-16 00:01:00,71.4,67.7,29.64,NW,323,0.0,1.0,88,0.00,,,0.00,0,WeatherCatV1.15B25,2013-07-16 04:01:00,
2013-07-16 00:07:00,71.3,67.9,29.64,NW,323,0.0,0.0,89,0.00,,,0.00,0,WeatherCatV1.15B25,2013-07-16 04:07:00,
2013-07-16 00:12:00,71.2,67.5,29.64,NW,323,0.0,1.0,88,0.00,,,0.00,0,WeatherCatV1.15B25,2013-07-16 04:12:00,
2013-07-16 00:17:00,71.1,67.4,29.64,NW,323,0.0,2.0,88,0.00,,,0.00,0,WeatherCatV1.15B25,2013-07-16 04:17:00,
2013-07-16 00:21:00,71.0,67.3,29.64,NW,323,0.0,0.0,88,0.00,,,0.00,0,WeatherCatV1.15B25,2013-07-16 04:21:00,
2013-07-16 00:26:00,70.8,67.1,29.64,NW,323,0.0,0.0,88,0.00,,,0.00,0,WeatherCatV1.15B25,2013-07-16 04:26:00,
2013-07-16 00:31:00,70.7,67.0,29.63,West,265,0.0,0.0,88,0.00,,,0.00,0,WeatherCatV1.15B25,2013-07-16 04:31:00,
2013-07-16 00:36:00,70.6,66.9,29.64,West,265,2.0,2.0,88,0.00,,,0.00,0,WeatherCatV1.15B25,2013-07-16 04:36:00,
2013-07-16 00:41:00,70.5,66.8,29.64,West,265,0.0,0.0,88,0.00,,,0.00,0,WeatherCatV1.15B25,2013-07-16 04:41:00,
2013-07-16 00:46:00,70.4,66.7,29.64,West,265,0.0,0.0,88,0.00,,,0.00,0,WeatherCatV1.15B25,2013-07-16 04:46:00,
2013-07-16 00:51:00,70.3,66.9,29.64,West,265,0.0,0.0,89,0.00,,,0.00,0,WeatherCatV1.15B25,2013-07-16 04:51:00,
2013-07-16 00:56:00,70.2,66.5,29.63,West,265,0.0,0.0,88,0.00,,,0.00,0,WeatherCatV1.15B25,2013-07-16 04:56:00,
2013-07-16 01:02:00,70.1,66.4,29.64,West,265,0.0,0.0,88,0.00,,,0.00,0,WeatherCatV1.15B25,2013-07-16 05:02:00,
2013-07-16 01:07:00,69.9,66.5,29.64,West,265,0.0,0.0,89,0.00,,,0.00,0,WeatherCatV1.15B25,2013-07-16 05:07:00,
2013-07-16 01:12:00,69.8,66.4,29.64,West,265,0.0,0.0,89,0.00,,,0.00,0,WeatherCatV1.15B25,2013-07-16 05:12:00,
2013-07-16 01:17:00,69.7,66.3,29.63,West,265,0.0,0.0,89,0.00,,,0.00,0,WeatherCatV1.15B25,2013-07-16 05:17:00,
2013-07-16 01:22:00,69.6,66.2,29.63,West,265,0.0,0.0,89,0.00,,,0.00,0,WeatherCatV1.15B25,2013-07-16 05:22:00,
2013-07-16 01:27:00,69.5,66.1,29.63,West,265,0.0,0.0,89,0.00,,,0.00,0,WeatherCatV1.15B25,2013-07-16 05:27:00,
2013-07-16 01:32:00,69.4,66.0,29.63,West,265,0.0,0.0,89,0.00,,,0.00,0,WeatherCatV1.15B25,2013-07-16 05:32:00,
2013-07-16 01:37:00,69.2,66.1,29.63,West,265,0.0,0.0,90,0.00,,,0.00,0,WeatherCatV1.15B25,2013-07-16 05:37:00,
2013-07-16 01:42:00,69.1,66.0,29.63,West,265,0.0,0.0,90,0.00,,,0.00,0,WeatherCatV1.15B25,2013-07-16 05:42:00,
2013-07-16 01:47:00,69.0,65.9,29.63,West,265,0.0,0.0,90,0.00,,,0.00,0,WeatherCatV1.15B25,2013-07-16 05:47:00,
2013-07-16 01:52:00,68.8,65.7,29.63,West,265,0.0,0.0,90,0.00,,,0.00,0,WeatherCatV1.15B25,2013-07-16 05:52:00,
2013-07-16 01:57:00,68.7,65.6,29.63,West,265,0.0,0.0,90,0.00,,,0.00,0,WeatherCatV1.15B25,2013-07-16 05:57:00,
2013-07-16 02:02:00,68.6,65.9,29.63,West,265,0.0,0.0,91,0.00,,,0.00,0,WeatherCatV1.15B25,2013-07-16 06:02:00,
2013-07-16 02:07:00,68.5,65.8,29.63,West,265,0.0,0.0,91,0.00,,,0.00,0,WeatherCatV1.15B25,2013-07-16 06:07:00,
2013-07-16 02:12:00,68.4,65.7,29.63,West,265,0.0,0.0,91,0.00,,,0.00,0,WeatherCatV1.15B25,2013-07-16 06:12:00,
2013-07-16 02:17:00,68.3,65.6,29.63,West,265,0.0,0.0,91,0.00,,,0.00,0,WeatherCatV1.15B25,2013-07-16 06:17:00,
2013-07-16 02:22:00,68.1,65.4,29.63,West,265,0.0,0.0,91,0.00,,,0.00,0,WeatherCatV1.15B25,2013-07-16 06:22:00,
2013-07-16 02:27:00,68.0,65.3,29.63,West,265,0.0,0.0,91,0.00,,,0.00,0,WeatherCatV1.15B25,2013-07-16 06:27:00,
2013-07-16 02:29:00,68.0,65.6,29.63,West,265,0.0,0.0,92,0.00,,,0.00,0,WeatherCatV1.15B25,2013-07-16 06:29:00,
2013-07-16 02:35:00,67.9,65.5,29.63,West,265,0.0,1.0,92,0.00,,,0.00,0,WeatherCatV1.15B25,2013-07-16 06:35:00,
2013-07-16 02:40:00,67.8,65.4,29.63,West,265,0.0,0.0,92,0.00,,,0.00,0,WeatherCatV1.15B25,2013-07-16 06:40:00,
2013-07-16 02:45:00,67.7,65.3,29.62,West,265,0.0,0.0,92,0.00,,,0.00,0,WeatherCatV1.15B25,2013-07-16 06:45:00,
2013-07-16 02:50:00,67.6,65.2,29.63,West,265,0.0,0.0,92,0.00,,,0.00,0,WeatherCatV1.15B25,2013-07-16 06:50:00,
2013-07-16 02:55:00,67.5,65.1,29.63,West,265,0.0,1.0,92,0.00,,,0.00,0,WeatherCatV1.15B25,2013-07-16 06:55:00,
2013-07-16 03:00:00,67.5,65.4,29.63,West,265,0.0,0.0,93,0.00,,,0.00,0,WeatherCatV1.15B25,2013-07-16 07:00:00,
2013-07-16 03:05:00,67.4,65.3,29.63,West,265,0.0,0.0,93,0.00,,,0.00,0,WeatherCatV1.15B25,2013-07-16 07:05:00,
2013-07-16 03:10:00,67.3,65.2,29.63,West,265,0.0,1.0,93,0.00,,,0.00,0,WeatherCatV1.15B25,2013-07-16 07:10:00,
2013-07-16 03:15:00,67.2,65.1,29.63,West,265,0.0,0.0,93,0.00,,,0.00,0,WeatherCatV1.15B25,2013-07-16 07:15:00,
2013-07-16 03:20:00,67.1,65.0,29.64,West,265,0.0,1.0,93,0.00,,,0.00,0,WeatherCatV1.15B25,2013-07-16 07:20:00,
2013-07-16 03:25:00,67.1,65.0,29.63,West,265,0.0,0.0,93,0.00,,,0.00,0,WeatherCatV1.15B25,2013-07-16 07:25:00,
2013-07-16 03:30:00,67.0,65.2,29.63,West,265,0.0,0.0,94,0.00,,,0.00,0,WeatherCatV1.15B25,2013-07-16 07:30:00,
2013-07-16 03:35:00,67.0,65.2,29.63,West,265,0.0,0.0,94,0.00,,,0.00,0,WeatherCatV1.15B25,2013-07-16 07:35:00,
2013-07-16 03:40:00,66.9,65.1,29.63,West,265,0.0,0.0,94,0.00,,,0.00,0,WeatherCatV1.15B25,2013-07-16 07:40:00,
2013-07-16 03:45:00,66.9,65.1,29.63,West,265,0.0,1.0,94,0.00,,,0.00,0,WeatherCatV1.15B25,2013-07-16 07:45:00,
2013-07-16 03:50:00,66.9,65.4,29.63,West,265,0.0,0.0,95,0.00,,,0.00,0,WeatherCatV1.15B25,2013-07-16 07:50:00,
2013-07-16 03:55:00,66.9,65.4,29.63,West,265,0.0,0.0,95,0.00,,,0.00,0,WeatherCatV1.15B25,2013-07-16 07:55:00,
2013-07-16 04:00:00,66.8,65.3,29.63,West,261,0.0,2.0,95,0.00,,,0.00,0,WeatherCatV1.15B25,2013-07-16 08:00:00,
2013-07-16 04:03:00,66.9,65.4,29.63,West,261,1.0,2.0,95,0.00,,,0.00,0,WeatherCatV1.15B25,2013-07-16 08:03:00,
2013-07-16 04:04:00,66.8,65.3,29.63,West,261,0.0,1.0,95,0.00,,,0.00,0,WeatherCatV1.15B25,2013-07-16 08:04:00,
2013-07-16 04:09:00,66.8,65.3,29.63,West,261,0.0,0.0,95,0.00,,,0.00,0,WeatherCatV1.15B25,2013-07-16 08:09:00,
2013-07-16 04:14:00,66.8,65.3,29.63,West,261,0.0,0.0,95,0.00,,,0.00,0,WeatherCatV1.15B25,2013-07-16 08:14:00,
2013-07-16 04:19:00,66.8,65.3,29.63,West,261,0.0,0.0,95,0.00,,,0.00,0,WeatherCatV1.15B25,2013-07-16 08:19:00,
2013-07-16 04:24:00,66.8,65.3,29.63,West,261,0.0,0.0,95,0.00,,,0.00,0,WeatherCatV1.15B25,2013-07-16 08:24:00,
2013-07-16 04:29:00,66.7,65.2,29.63,West,261,0.0,0.0,95,0.00,,,0.00,0,WeatherCatV1.15B25,2013-07-16 08:29:00,
2013-07-16 04:34:00,66.7,65.2,29.63,West,261,0.0,1.0,95,0.00,,,0.00,0,WeatherCatV1.15B25,2013-07-16 08:34:00,
2013-07-16 04:39:00,66.7,65.2,29.63,West,261,0.0,1.0,95,0.00,,,0.00,0,WeatherCatV1.15B25,2013-07-16 08:39:00,
2013-07-16 04:44:00,66.6,65.1,29.63,West,261,1.0,1.0,95,0.00,,,0.00,0,WeatherCatV1.15B25,2013-07-16 08:44:00,
2013-07-16 04:49:00,66.6,65.1,29.63,West,261,0.0,0.0,95,0.00,,,0.00,0,WeatherCatV1.15B25,2013-07-16 08:49:00,
2013-07-16 04:54:00,66.6,65.1,29.63,West,261,0.0,0.0,95,0.00,,,0.00,0,WeatherCatV1.15B25,2013-07-16 08:54:00,
2013-07-16 04:59:00,66.5,65.0,29.63,West,261,0.0,0.0,95,0.00,,,0.00,0,WeatherCatV1.15B25,2013-07-16 08:59:00,
2013-07-16 05:04:00,66.5,65.0,29.63,West,261,0.0,0.0,95,0.00,,,0.00,0,WeatherCatV1.15B25,2013-07-16 09:04:00,
2013-07-16 05:09:00,66.5,65.0,29.63,West,261,0.0,0.0,95,0.00,,,0.00,0,WeatherCatV1.15B25,2013-07-16 09:09:00,
2013-07-16 05:14:00,66.4,64.9,29.63,West,261,0.0,0.0,95,0.00,,,0.00,0,WeatherCatV1.15B25,2013-07-16 09:14:00,
2013-07-16 05:19:00,66.4,64.9,29.64,West,261,0.0,0.0,95,0.00,,,0.00,0,WeatherCatV1.15B25,2013-07-16 09:19:00,
2013-07-16 05:24:00,66.4,64.9,29.64,West,261,0.0,0.0,95,0.00,,,0.00,0,WeatherCatV1.15B25,2013-07-16 09:24:00,
2013-07-16 05:29:00,66.3,64.8,29.64,West,261,0.0,0.0,95,0.00,,,0.00,0,WeatherCatV1.15B25,2013-07-16 09:29:00,
2013-07-16 05:34:00,66.3,64.8,29.64,West,261,0.0,0.0,95,0.00,,,0.00,0,WeatherCatV1.15B25,2013-07-16 09:34:00,
2013-07-16 05:37:00,66.3,64.8,29.64,West,261,0.0,0.0,95,0.00,,,0.00,0,WeatherCatV1.15B25,2013-07-16 09:37:00,
2013-07-16 05:42:00,66.3,64.8,29.64,West,261,0.0,0.0,95,0.00,,,0.00,5,WeatherCatV1.15B25,2013-07-16 09:42:00,
2013-07-16 05:47:00,66.3,64.8,29.64,West,261,0.0,0.0,95,0.00,,,0.00,7,WeatherCatV1.15B25,2013-07-16 09:47:00,
2013-07-16 05:52:00,66.3,64.8,29.64,West,261,0.0,0.0,95,0.00,,,0.00,7,WeatherCatV1.15B25,2013-07-16 09:52:00,
2013-07-16 05:57:00,66.2,65.0,29.65,West,261,0.0,0.0,96,0.00,,,0.00,9,WeatherCatV1.15B25,2013-07-16 09:57:00,
2013-07-16 06:02:00,66.3,65.1,29.65,West,261,0.0,0.0,96,0.00,,,0.00,9,WeatherCatV1.15B25,2013-07-16 10:02:00,
2013-07-16 06:07:00,66.3,65.1,29.65,West,261,0.0,0.0,96,0.00,,,0.00,12,WeatherCatV1.15B25,2013-07-16 10:07:00,
2013-07-16 06:08:00,66.3,65.1,29.65,West,261,0.0,0.0,96,0.00,,,0.00,12,WeatherCatV1.15B25,2013-07-16 10:08:00,
2013-07-16 06:13:00,66.3,65.1,29.65,West,261,0.0,0.0,96,0.00,,,0.00,18,WeatherCatV1.15B25,2013-07-16 10:13:00,
2013-07-16 06:18:00,66.3,65.1,29.65,West,261,0.0,0.0,96,0.00,,,0.00,16,WeatherCatV1.15B25,2013-07-16 10:18:00,
2013-07-16 06:23:00,66.3,65.1,29.65,West,261,0.0,0.0,96,0.00,,,0.00,21,WeatherCatV1.15B25,2013-07-16 10:23:00,
2013-07-16 06:28:00,66.3,65.1,29.65,West,261,0.0,0.0,96,0.00,,,0.00,23,WeatherCatV1.15B25,2013-07-16 10:28:00,
2013-07-16 06:33:00,66.4,65.2,29.65,West,261,0.0,1.0,96,0.00,,,0.00,25,WeatherCatV1.15B25,2013-07-16 10:33:00,
2013-07-16 06:38:00,66.5,65.3,29.65,West,261,0.0,0.0,96,0.00,,,0.00,26,WeatherCatV1.15B25,2013-07-16 10:38:00,
2013-07-16 06:43:00,66.6,65.4,29.65,West,261,0.0,0.0,96,0.00,,,0.00,28,WeatherCatV1.15B25,2013-07-16 10:43:00,
2013-07-16 06:48:00,66.6,65.4,29.66,West,261,0.0,0.0,96,0.00,,,0.00,30,WeatherCatV1.15B25,2013-07-16 10:48:00,
2013-07-16 06:53:00,66.7,65.8,29.65,West,261,0.0,0.0,97,0.00,,,0.00,32,WeatherCatV1.15B25,2013-07-16 10:53:00,
2013-07-16 06:58:00,66.9,66.0,29.65,West,261,0.0,0.0,97,0.00,,,0.00,33,WeatherCatV1.15B25,2013-07-16 10:58:00,
2013-07-16 07:03:00,67.1,66.2,29.65,West,261,0.0,1.0,97,0.00,,,0.00,35,WeatherCatV1.15B25,2013-07-16 11:03:00,
2013-07-16 07:08:00,67.3,66.7,29.65,West,261,0.0,0.0,98,0.00,,,0.00,39,WeatherCatV1.15B25,2013-07-16 11:08:00,
2013-07-16 07:13:00,67.5,66.9,29.65,West,261,0.0,0.0,98,0.00,,,0.00,40,WeatherCatV1.15B25,2013-07-16 11:13:00,
2013-07-16 07:18:00,67.7,67.1,29.65,West,261,0.0,0.0,98,0.00,,,0.00,42,WeatherCatV1.15B25,2013-07-16 11:18:00,
2013-07-16 07:23:00,67.9,67.3,29.65,West,261,0.0,0.0,98,0.00,,,0.00,44,WeatherCatV1.15B25,2013-07-16 11:23:00,
2013-07-16 07:28:00,68.2,67.6,29.65,West,261,0.0,0.0,98,0.00,,,0.00,51,WeatherCatV1.15B25,2013-07-16 11:28:00,
2013-07-16 07:33:00,68.4,67.8,29.65,West,261,0.0,0.0,98,0.00,,,0.00,47,WeatherCatV1.15B25,2013-07-16 11:33:00,
2013-07-16 07:38:00,68.8,68.5,29.66,West,261,0.0,1.0,99,0.00,,,0.00,49,WeatherCatV1.15B25,2013-07-16 11:38:00,
2013-07-16 07:43:00,69.0,68.7,29.66,West,261,0.0,0.0,99,0.00,,,0.00,51,WeatherCatV1.15B25,2013-07-16 11:43:00,
2013-07-16 07:48:00,69.3,69.0,29.66,West,261,0.0,0.0,99,0.00,,,0.00,58,WeatherCatV1.15B25,2013-07-16 11:48:00,
2013-07-16 07:57:00,69.8,69.5,29.66,West,261,0.0,0.0,99,0.00,,,0.00,56,WeatherCatV1.15B25,2013-07-16 11:57:00,
2013-07-16 08:02:00,70.1,69.8,29.66,West,261,0.0,0.0,99,0.00,,,0.00,58,WeatherCatV1.15B25,2013-07-16 12:02:00,
2013-07-16 08:07:00,70.3,69.7,29.66,West,261,0.0,0.0,98,0.00,,,0.00,58,WeatherCatV1.15B25,2013-07-16 12:07:00,
2013-07-16 08:12:00,70.6,70.0,29.66,West,261,0.0,0.0,98,0.00,,,0.00,60,WeatherCatV1.15B25,2013-07-16 12:12:00,
2013-07-16 08:17:00,71.0,70.4,29.66,West,261,0.0,0.0,98,0.00,,,0.00,62,WeatherCatV1.15B25,2013-07-16 12:17:00,
2013-07-16 08:22:00,71.3,70.4,29.65,West,261,0.0,0.0,97,0.00,,,0.00,62,WeatherCatV1.15B25,2013-07-16 12:22:00,
2013-07-16 08:27:00,71.6,70.4,29.65,West,261,0.0,0.0,96,0.00,,,0.00,63,WeatherCatV1.15B25,2013-07-16 12:27:00,
2013-07-16 08:32:00,72.0,70.8,29.66,West,261,0.0,0.0,96,0.00,,,0.00,65,WeatherCatV1.15B25,2013-07-16 12:32:00,
2013-07-16 08:37:00,72.3,70.8,29.65,West,261,0.0,0.0,95,0.00,,,0.00,65,WeatherCatV1.15B25,2013-07-16 12:37:00,
2013-07-16 08:42:00,72.6,70.8,29.66,West,261,0.0,0.0,94,0.00,,,0.00,67,WeatherCatV1.15B25,2013-07-16 12:42:00,
2013-07-16 08:47:00,73.0,71.5,29.66,West,261,0.0,0.0,95,0.00,,,0.00,69,WeatherCatV1.15B25,2013-07-16 12:47:00,
2013-07-16 08:52:00,73.4,71.6,29.66,West,261,0.0,0.0,94,0.00,,,0.00,69,WeatherCatV1.15B25,2013-07-16 12:52:00,
2013-07-16 08:57:00,73.8,72.0,29.66,West,261,0.0,0.0,94,0.00,,,0.00,69,WeatherCatV1.15B25,2013-07-16 12:57:00,
2013-07-16 09:02:00,74.2,72.4,29.66,West,261,0.0,0.0,94,0.00,,,0.00,70,WeatherCatV1.15B25,2013-07-16 13:02:00,
2013-07-16 09:07:00,74.6,72.4,29.66,West,261,0.0,0.0,93,0.00,,,0.00,72,WeatherCatV1.15B25,2013-07-16 13:07:00,
2013-07-16 09:12:00,74.8,72.0,29.66,West,261,0.0,0.0,91,0.00,,,0.00,72,WeatherCatV1.15B25,2013-07-16 13:12:00,
2013-07-16 09:17:00,75.2,72.1,29.66,West,261,0.0,0.0,90,0.00,,,0.00,74,WeatherCatV1.15B25,2013-07-16 13:17:00,
2013-07-16 09:22:00,75.5,71.3,29.66,West,261,0.0,0.0,87,0.00,,,0.00,76,WeatherCatV1.15B25,2013-07-16 13:22:00,
2013-07-16 09:27:00,75.8,71.6,29.66,West,261,0.0,0.0,87,0.00,,,0.00,77,WeatherCatV1.15B25,2013-07-16 13:27:00,
2013-07-16 09:32:00,76.2,71.7,29.66,West,261,0.0,0.0,86,0.00,,,0.00,77,WeatherCatV1.15B25,2013-07-16 13:32:00,
2013-07-16 09:37:00,76.5,72.3,29.66,West,261,0.0,0.0,87,0.00,,,0.00,79,WeatherCatV1.15B25,2013-07-16 13:37:00,
2013-07-16 09:42:00,76.9,72.7,29.66,West,261,0.0,0.0,87,0.00,,,0.00,107,WeatherCatV1.15B25,2013-07-16 13:42:00,
2013-07-16 09:47:00,77.2,73.0,29.66,West,261,0.0,0.0,87,0.00,,,0.00,134,WeatherCatV1.15B25,2013-07-16 13:47:00,
2013-07-16 09:52:00,77.5,73.0,29.66,West,261,0.0,0.0,86,0.00,,,0.00,98,WeatherCatV1.15B25,2013-07-16 13:52:00,
2013-07-16 09:57:00,77.8,72.6,29.66,West,261,0.0,0.0,84,0.00,,,0.00,83,WeatherCatV1.15B25,2013-07-16 13:57:00,
2013-07-16 10:02:00,78.2,71.9,29.66,West,261,0.0,0.0,81,0.00,,,0.00,79,WeatherCatV1.15B25,2013-07-16 14:02:00,
2013-07-16 10:07:00,78.6,73.0,29.66,West,261,0.0,0.0,83,0.00,,,0.00,84,WeatherCatV1.15B25,2013-07-16 14:07:00,
2013-07-16 10:09:00,78.7,72.0,29.66,West,261,0.0,1.0,80,0.00,,,0.00,120,WeatherCatV1.15B25,2013-07-16 14:09:00,
2013-07-16 10:10:00,78.7,70.9,29.66,West,261,0.0,1.0,77,0.00,,,0.00,120,WeatherCatV1.15B25,2013-07-16 14:10:00,
2013-07-16 10:15:00,79.2,70.2,29.66,West,261,0.0,0.0,74,0.00,,,0.00,135,WeatherCatV1.15B25,2013-07-16 14:15:00,
2013-07-16 10:20:00,79.7,71.8,29.66,West,261,0.0,1.0,77,0.00,,,0.00,135,WeatherCatV1.15B25,2013-07-16 14:20:00,
2013-07-16 10:25:00,80.2,70.3,29.65,West,273,0.0,0.0,72,0.00,,,0.00,123,WeatherCatV1.15B25,2013-07-16 14:25:00,
2013-07-16 10:30:00,80.8,71.3,29.65,West,273,0.0,0.0,73,0.00,,,0.00,612,WeatherCatV1.15B25,2013-07-16 14:30:00,
2013-07-16 10:35:00,81.4,68.9,29.66,North,5,1.0,3.0,66,0.00,,,0.00,529,WeatherCatV1.15B25,2013-07-16 14:35:00,
2013-07-16 10:40:00,82.1,69.1,29.66,North,355,6.0,6.0,65,0.00,,,0.00,190,WeatherCatV1.15B25,2013-07-16 14:40:00,
2013-07-16 10:45:00,82.8,70.3,29.66,North,5,5.0,7.0,66,0.00,,,0.00,171,WeatherCatV1.15B25,2013-07-16 14:45:00,
2013-07-16 10:50:00,83.3,69.4,29.66,NNE,15,2.0,4.0,63,0.00,,,0.00,171,WeatherCatV1.15B25,2013-07-16 14:50:00,
2013-07-16 10:55:00,83.8,68.9,29.66,North,355,5.0,5.0,61,0.00,,,0.00,118,WeatherCatV1.15B25,2013-07-16 14:55:00,
2013-07-16 11:00:00,84.3,68.9,29.65,NNE,17,3.0,4.0,60,0.00,,,0.00,137,WeatherCatV1.15B25,2013-07-16 15:00:00,
2013-07-16 11:05:00,84.6,69.6,29.65,North,0,0.0,3.0,61,0.00,,,0.00,109,WeatherCatV1.15B25,2013-07-16 15:05:00,
2013-07-16 11:10:00,84.9,69.9,29.66,North,355,3.0,5.0,61,0.00,,,0.00,121,WeatherCatV1.15B25,2013-07-16 15:10:00,
2013-07-16 11:15:00,85.2,69.2,29.65,North,351,0.0,3.0,59,0.00,,,0.00,135,WeatherCatV1.15B25,2013-07-16 15:15:00,
2013-07-16 11:20:00,85.3,68.8,29.66,NNE,16,0.0,3.0,58,0.00,,,0.00,88,WeatherCatV1.15B25,2013-07-16 15:20:00,
2013-07-16 11:25:00,85.5,70.0,29.66,North,355,0.0,5.0,60,0.00,,,0.00,95,WeatherCatV1.15B25,2013-07-16 15:25:00,
2013-07-16 11:30:00,85.7,70.2,29.66,North,355,3.0,3.0,60,0.00,,,0.00,95,WeatherCatV1.15B25,2013-07-16 15:30:00,
2013-07-16 11:35:00,85.8,69.3,29.65,North,0,4.0,5.0,58,0.00,,,0.00,100,WeatherCatV1.15B25,2013-07-16 15:35:00,
2013-07-16 11:40:00,85.9,69.4,29.65,North,0,0.0,2.0,58,0.00,,,0.00,125,WeatherCatV1.15B25,2013-07-16 15:40:00,
2013-07-16 11:45:00,85.9,69.4,29.65,North,0,2.0,4.0,58,0.00,,,0.00,107,WeatherCatV1.15B25,2013-07-16 15:45:00,
2013-07-16 11:50:00,85.9,69.4,29.66,NNW,346,0.0,4.0,58,0.00,,,0.00,102,WeatherCatV1.15B25,2013-07-16 15:50:00,
2013-07-16 11:55:00,85.8,68.3,29.65,North,5,3.0,7.0,56,0.00,,,0.00,97,WeatherCatV1.15B25,2013-07-16 15:55:00,
2013-07-16 12:00:00,85.8,68.8,29.65,NW,321,2.0,2.0,57,0.00,,,0.00,100,WeatherCatV1.15B25,2013-07-16 16:00:00,
2013-07-16 12:05:00,85.9,69.4,29.65,North,0,1.0,3.0,58,0.00,,,0.00,84,WeatherCatV1.15B25,2013-07-16 16:05:00,
2013-07-16 12:10:00,85.9,68.9,29.65,North,5,1.0,5.0,57,0.00,,,0.00,86,WeatherCatV1.15B25,2013-07-16 16:10:00,
2013-07-16 12:15:00,85.9,69.4,29.65,North,355,3.0,5.0,58,0.00,,,0.00,88,WeatherCatV1.15B25,2013-07-16 16:15:00,
2013-07-16 12:20:00,85.8,69.3,29.64,NNE,25,4.0,5.0,58,0.00,,,0.00,90,WeatherCatV1.15B25,2013-07-16 16:20:00,
2013-07-16 12:25:00,85.8,69.8,29.64,North,9,0.0,2.0,59,0.00,,,0.00,86,WeatherCatV1.15B25,2013-07-16 16:25:00,
2013-07-16 12:30:00,85.8,70.3,29.65,North,11,1.0,3.0,60,0.00,,,0.00,125,WeatherCatV1.15B25,2013-07-16 16:30:00,
2013-07-16 12:35:00,85.8,69.3,29.65,North,355,3.0,4.0,58,0.00,,,0.00,49,WeatherCatV1.15B25,2013-07-16 16:35:00,
2013-07-16 12:40:00,85.7,69.7,29.65,North,355,0.0,1.0,59,0.00,,,0.00,111,WeatherCatV1.15B25,2013-07-16 16:40:00,
2013-07-16 12:45:00,85.7,70.2,29.65,NNW,344,0.0,3.0,60,0.00,,,0.00,113,WeatherCatV1.15B25,2013-07-16 16:45:00,
2013-07-16 12:50:00,85.7,70.7,29.65,North,10,6.0,6.0,61,0.00,,,0.00,121,WeatherCatV1.15B25,2013-07-16 16:50:00,
2013-07-16 12:55:00,85.7,69.2,29.65,NNE,14,5.0,10.0,58,0.00,,,0.00,125,WeatherCatV1.15B25,2013-07-16 16:55:00,
2013-07-16 13:00:00,85.8,69.3,29.64,North,5,4.0,10.0,58,0.00,,,0.00,100,WeatherCatV1.15B25,2013-07-16 17:00:00,
2013-07-16 13:05:00,85.8,70.3,29.65,North,5,3.0,5.0,60,0.00,,,0.00,105,WeatherCatV1.15B25,2013-07-16 17:05:00,
2013-07-16 13:10:00,85.9,70.9,29.65,North,5,1.0,4.0,61,0.00,,,0.00,102,WeatherCatV1.15B25,2013-07-16 17:10:00,
2013-07-16 13:15:00,85.9,69.4,29.65,NNE,26,1.0,5.0,58,0.00,,,0.00,91,WeatherCatV1.15B25,2013-07-16 17:15:00,
2013-07-16 13:20:00,85.9,69.9,29.64,North,5,5.0,6.0,59,0.00,,,0.00,88,WeatherCatV1.15B25,2013-07-16 17:20:00,
2013-07-16 13:25:00,85.9,69.9,29.64,North,5,1.0,3.0,59,0.00,,,0.00,90,WeatherCatV1.15B25,2013-07-16 17:25:00,
2013-07-16 13:30:00,85.9,70.9,29.64,North,0,1.0,4.0,61,0.00,,,0.00,100,WeatherCatV1.15B25,2013-07-16 17:30:00,
2013-07-16 13:35:00,85.9,70.4,29.64,North,355,0.0,1.0,60,0.00,,,0.00,95,WeatherCatV1.15B25,2013-07-16 17:35:00,
2013-07-16 13:40:00,86.0,70.5,29.64,North,355,0.0,2.0,60,0.00,,,0.00,91,WeatherCatV1.15B25,2013-07-16 17:40:00,
2013-07-16 13:45:00,86.0,69.5,29.64,NNE,33,2.0,4.0,58,0.00,,,0.00,100,WeatherCatV1.15B25,2013-07-16 17:45:00,
2013-07-16 13:50:00,86.2,70.7,29.64,North,5,0.0,1.0,60,0.00,,,0.00,156,WeatherCatV1.15B25,2013-07-16 17:50:00,
2013-07-16 13:55:00,86.4,70.8,29.63,North,9,3.0,3.0,60,0.00,,,0.00,109,WeatherCatV1.15B25,2013-07-16 17:55:00,
2013-07-16 14:00:00,86.5,69.4,29.63,North,5,3.0,4.0,57,0.00,,,0.00,178,WeatherCatV1.15B25,2013-07-16 18:00:00,
2013-07-16 14:05:00,86.6,70.5,29.63,North,355,2.0,5.0,59,0.00,,,0.00,86,WeatherCatV1.15B25,2013-07-16 18:05:00,
2013-07-16 14:10:00,86.7,69.1,29.63,North,5,0.0,3.0,56,0.00,,,0.00,237,WeatherCatV1.15B25,2013-07-16 18:10:00,
2013-07-16 14:15:00,86.8,70.2,29.63,North,355,5.0,7.0,58,0.00,,,0.00,118,WeatherCatV1.15B25,2013-07-16 18:15:00,
2013-07-16 14:20:00,87.0,68.8,29.63,North,5,3.0,3.0,55,0.00,,,0.00,56,WeatherCatV1.15B25,2013-07-16 18:20:00,
2013-07-16 14:25:00,87.0,68.3,29.63,North,0,1.0,3.0,54,0.00,,,0.00,171,WeatherCatV1.15B25,2013-07-16 18:25:00,
2013-07-16 14:30:00,87.1,68.9,29.63,North,0,2.0,4.0,55,0.00,,,0.00,121,WeatherCatV1.15B25,2013-07-16 18:30:00,
2013-07-16 14:35:00,87.1,67.3,29.63,North,355,2.0,2.0,52,0.00,,,0.00,86,WeatherCatV1.15B25,2013-07-16 18:35:00,
2013-07-16 14:40:00,87.1,69.5,29.63,North,355,0.0,1.0,56,0.00,,,0.00,90,WeatherCatV1.15B25,2013-07-16 18:40:00,
2013-07-16 14:45:00,87.0,68.8,29.63,North,5,3.0,4.0,55,0.00,,,0.00,58,WeatherCatV1.15B25,2013-07-16 18:45:00,
2013-07-16 14:50:00,87.0,67.2,29.63,NNE,13,1.0,1.0,52,0.00,,,0.00,93,WeatherCatV1.15B25,2013-07-16 18:50:00,
2013-07-16 14:55:00,87.1,67.9,29.63,North,5,0.0,1.0,53,0.00,,,0.00,142,WeatherCatV1.15B25,2013-07-16 18:55:00,
2013-07-16 15:00:00,87.1,66.7,29.63,North,5,0.0,1.0,51,0.00,,,0.00,251,WeatherCatV1.15B25,2013-07-16 19:00:00,
2013-07-16 15:05:00,87.4,67.6,29.63,North,355,1.0,3.0,52,0.00,,,0.00,555,WeatherCatV1.15B25,2013-07-16 19:05:00,
2013-07-16 15:10:00,87.7,66.1,29.62,NNE,20,0.0,3.0,49,0.00,,,0.00,86,WeatherCatV1.15B25,2013-07-16 19:10:00,
2013-07-16 15:15:00,88.1,67.1,29.62,North,0,0.0,4.0,50,0.00,,,0.00,726,WeatherCatV1.15B25,2013-07-16 19:15:00,
2013-07-16 15:20:00,88.3,67.3,29.63,North,0,0.0,1.0,50,0.00,,,0.00,775,WeatherCatV1.15B25,2013-07-16 19:20:00,
2013-07-16 15:25:00,88.6,68.1,29.63,NNE,28,0.0,1.0,51,0.00,,,0.00,684,WeatherCatV1.15B25,2013-07-16 19:25:00,
2013-07-16 15:30:00,88.9,68.4,29.62,North,0,2.0,4.0,51,0.00,,,0.00,733,WeatherCatV1.15B25,2013-07-16 19:30:00,
2013-07-16 15:35:00,89.1,69.1,29.63,North,355,1.0,4.0,52,0.00,,,0.00,84,WeatherCatV1.15B25,2013-07-16 19:35:00,
2013-07-16 15:40:00,89.0,67.9,29.63,NNE,17,0.0,4.0,50,0.00,,,0.00,79,WeatherCatV1.15B25,2013-07-16 19:40:00,
2013-07-16 15:45:00,89.0,69.6,29.63,NNW,341,1.0,2.0,53,0.00,,,0.00,183,WeatherCatV1.15B25,2013-07-16 19:45:00,
2013-07-16 15:50:00,89.0,68.5,29.63,NNE,24,1.0,2.0,51,0.00,,,0.00,172,WeatherCatV1.15B25,2013-07-16 19:50:00,
2013-07-16 15:55:00,89.1,69.1,29.63,North,5,1.0,3.0,52,0.00,,,0.00,111,WeatherCatV1.15B25,2013-07-16 19:55:00,
2013-07-16 16:00:00,89.2,68.7,29.63,North,11,0.0,2.0,51,0.00,,,0.00,91,WeatherCatV1.15B25,2013-07-16 20:00:00,
2013-07-16 16:05:00,89.2,69.2,29.63,North,5,1.0,3.0,52,0.00,,,0.00,295,WeatherCatV1.15B25,2013-07-16 20:05:00,
2013-07-16 16:10:00,89.3,67.0,29.63,North,355,2.0,5.0,48,0.00,,,0.00,148,WeatherCatV1.15B25,2013-07-16 20:10:00,
2013-07-16 16:15:00,89.6,68.5,29.62,North,355,1.0,2.0,50,0.00,,,0.00,246,WeatherCatV1.15B25,2013-07-16 20:15:00,
2013-07-16 16:20:00,90.0,70.5,29.63,North,0,1.0,5.0,53,0.00,,,0.00,638,WeatherCatV1.15B25,2013-07-16 20:20:00,
2013-07-16 16:25:00,90.3,67.9,29.63,North,355,2.0,3.0,48,0.00,,,0.00,628,WeatherCatV1.15B25,2013-07-16 20:25:00,
2013-07-16 16:30:00,90.7,70.6,29.62,North,0,0.0,1.0,52,0.00,,,0.00,613,WeatherCatV1.15B25,2013-07-16 20:30:00,
2013-07-16 16:35:00,91.1,71.0,29.62,North,355,2.0,4.0,52,0.00,,,0.00,599,WeatherCatV1.15B25,2013-07-16 20:35:00,
2013-07-16 16:40:00,91.3,69.4,29.62,NNE,12,4.0,6.0,49,0.00,,,0.00,578,WeatherCatV1.15B25,2013-07-16 20:40:00,
2013-07-16 16:45:00,91.2,69.3,29.62,North,355,4.0,7.0,49,0.00,,,0.00,561,WeatherCatV1.15B25,2013-07-16 20:45:00,
2013-07-16 16:50:00,91.0,70.3,29.62,North,355,3.0,5.0,51,0.00,,,0.00,547,WeatherCatV1.15B25,2013-07-16 20:50:00,
2013-07-16 16:55:00,90.8,68.4,29.62,North,0,0.0,3.0,48,0.00,,,0.00,538,WeatherCatV1.15B25,2013-07-16 20:55:00,
2013-07-16 17:00:00,90.6,69.4,29.62,North,0,3.0,5.0,50,0.00,,,0.00,526,WeatherCatV1.15B25,2013-07-16 21:00:00,
2013-07-16 17:05:00,90.2,69.6,29.62,North,0,4.0,6.0,51,0.00,,,0.00,512,WeatherCatV1.15B25,2013-07-16 21:05:00,
2013-07-16 17:10:00,89.9,69.9,29.63,North,355,1.0,4.0,52,0.00,,,0.00,318,WeatherCatV1.15B25,2013-07-16 21:10:00,
2013-07-16 17:15:00,89.6,69.0,29.62,North,5,3.0,4.0,51,0.00,,,0.00,63,WeatherCatV1.15B25,2013-07-16 21:15:00,
2013-07-16 17:20:00,89.3,69.3,29.63,North,0,2.0,3.0,52,0.00,,,0.00,49,WeatherCatV1.15B25,2013-07-16 21:20:00,
2013-07-16 17:25:00,89.0,69.0,29.62,North,350,3.0,4.0,52,0.00,,,0.00,51,WeatherCatV1.15B25,2013-07-16 21:25:00,
2013-07-16 17:30:00,88.8,69.4,29.62,North,355,1.0,3.0,53,0.00,,,0.00,76,WeatherCatV1.15B25,2013-07-16 21:30:00,
2013-07-16 17:35:00,88.5,69.1,29.62,North,355,2.0,3.0,53,0.00,,,0.00,260,WeatherCatV1.15B25,2013-07-16 21:35:00,
2013-07-16 17:40:00,88.3,70.0,29.62,North,355,0.0,1.0,55,0.00,,,0.00,93,WeatherCatV1.15B25,2013-07-16 21:40:00,
2013-07-16 17:45:00,88.0,69.8,29.62,North,355,0.0,0.0,55,0.00,,,0.00,86,WeatherCatV1.15B25,2013-07-16 21:45:00,
2013-07-16 17:50:00,87.7,70.5,29.62,North,355,0.0,0.0,57,0.00,,,0.00,37,WeatherCatV1.15B25,2013-07-16 21:50:00,
2013-07-16 17:55:00,87.5,70.4,29.62,North,355,0.0,0.0,57,0.00,,,0.00,35,WeatherCatV1.15B25,2013-07-16 21:55:00,
2013-07-16 18:00:00,87.1,70.5,29.62,North,355,0.0,0.0,58,0.00,,,0.00,33,WeatherCatV1.15B25,2013-07-16 22:00:00,
2013-07-16 18:02:00,87.1,71.0,29.62,North,355,0.0,0.0,59,0.00,,,0.00,32,WeatherCatV1.15B25,2013-07-16 22:02:00,
2013-07-16 18:07:00,86.7,70.6,29.63,North,355,0.0,0.0,59,0.00,,,0.00,33,WeatherCatV1.15B25,2013-07-16 22:07:00,
2013-07-16 18:12:00,86.3,69.2,29.63,North,355,0.0,1.0,57,0.00,,,0.00,30,WeatherCatV1.15B25,2013-07-16 22:12:00,
2013-07-16 18:17:00,85.9,70.4,29.63,North,355,0.0,1.0,60,0.00,,,0.00,26,WeatherCatV1.15B25,2013-07-16 22:17:00,
2013-07-16 18:22:00,85.6,70.1,29.63,North,355,0.0,1.0,60,0.00,,,0.00,25,WeatherCatV1.15B25,2013-07-16 22:22:00,
2013-07-16 18:27:00,85.4,70.4,29.63,North,355,0.0,0.0,61,0.00,,,0.00,23,WeatherCatV1.15B25,2013-07-16 22:27:00,
2013-07-16 18:32:00,85.1,70.1,29.63,North,355,0.0,0.0,61,0.00,,,0.00,21,WeatherCatV1.15B25,2013-07-16 22:32:00,
2013-07-16 18:37:00,84.8,72.1,29.63,North,355,0.0,0.0,66,0.00,,,0.00,21,WeatherCatV1.15B25,2013-07-16 22:37:00,
2013-07-16 18:42:00,84.5,72.3,29.63,North,355,0.0,0.0,67,0.00,,,0.00,19,WeatherCatV1.15B25,2013-07-16 22:42:00,
2013-07-16 18:47:00,84.2,73.3,29.63,North,355,0.0,0.0,70,0.00,,,0.00,18,WeatherCatV1.15B25,2013-07-16 22:47:00,
2013-07-16 18:52:00,83.8,74.6,29.63,North,355,0.0,0.0,74,0.00,,,0.00,16,WeatherCatV1.15B25,2013-07-16 22:52:00,
2013-07-16 18:57:00,83.4,73.8,29.63,North,355,0.0,0.0,73,0.00,,,0.00,16,WeatherCatV1.15B25,2013-07-16 22:57:00,
2013-07-16 19:02:00,82.8,73.2,29.63,North,355,0.0,0.0,73,0.00,,,0.00,14,WeatherCatV1.15B25,2013-07-16 23:02:00,
2013-07-16 19:07:00,82.3,72.8,29.63,North,355,0.0,0.0,73,0.00,,,0.00,12,WeatherCatV1.15B25,2013-07-16 23:07:00,
2013-07-16 19:12:00,81.8,73.1,29.63,North,355,0.0,0.0,75,0.00,,,0.00,12,WeatherCatV1.15B25,2013-07-16 23:12:00,
2013-07-16 19:17:00,81.4,72.7,29.63,North,355,0.0,0.0,75,0.00,,,0.00,11,WeatherCatV1.15B25,2013-07-16 23:17:00,
2013-07-16 19:22:00,81.0,72.7,29.63,North,355,0.0,0.0,76,0.00,,,0.00,11,WeatherCatV1.15B25,2013-07-16 23:22:00,
2013-07-16 19:27:00,80.7,72.8,29.63,North,355,0.0,0.0,77,0.00,,,0.00,9,WeatherCatV1.15B25,2013-07-16 23:27:00,
2013-07-16 19:32:00,80.4,72.5,29.64,North,355,0.0,0.0,77,0.00,,,0.00,9,WeatherCatV1.15B25,2013-07-16 23:32:00,
2013-07-16 19:37:00,80.0,72.5,29.64,North,355,0.0,0.0,78,0.00,,,0.00,7,WeatherCatV1.15B25,2013-07-16 23:37:00,
2013-07-16 19:42:00,79.7,72.2,29.64,North,355,0.0,0.0,78,0.00,,,0.00,7,WeatherCatV1.15B25,2013-07-16 23:42:00,
2013-07-16 19:47:00,79.5,72.0,29.64,North,355,0.0,0.0,78,0.00,,,0.00,5,WeatherCatV1.15B25,2013-07-16 23:47:00,
2013-07-16 19:52:00,79.3,71.4,29.64,North,355,0.0,0.0,77,0.00,,,0.00,5,WeatherCatV1.15B25,2013-07-16 23:52:00,
2013-07-16 19:57:00,79.0,71.2,29.64,North,355,0.0,0.0,77,0.00,,,0.00,5,WeatherCatV1.15B25,2013-07-16 23:57:00,
2013-07-16 20:02:00,78.7,71.6,29.64,North,355,0.0,0.0,79,0.00,,,0.00,0,WeatherCatV1.15B25,2013-07-17 00:02:00,
2013-07-16 20:07:00,78.4,71.0,29.64,North,355,0.0,0.0,78,0.00,,,0.00,0,WeatherCatV1.15B25,2013-07-17 00:07:00,
2013-07-16 20:12:00,78.0,70.9,29.64,North,355,0.0,0.0,79,0.00,,,0.00,0,WeatherCatV1.15B25,2013-07-17 00:12:00,
2013-07-16 20:17:00,77.6,70.6,29.64,North,355,0.0,0.0,79,0.00,,,0.00,0,WeatherCatV1.15B25,2013-07-17 00:17:00,
2013-07-16 20:22:00,77.3,70.3,29.64,North,355,0.0,0.0,79,0.00,,,0.00,0,WeatherCatV1.15B25,2013-07-17 00:22:00,
2013-07-16 20:27:00,76.9,70.2,29.64,North,355,0.0,1.0,80,0.00,,,0.00,0,WeatherCatV1.15B25,2013-07-17 00:27:00,
2013-07-16 20:32:00,76.4,69.8,29.64,North,355,0.0,1.0,80,0.00,,,0.00,0,WeatherCatV1.15B25,2013-07-17 00:32:00,
2013-07-16 20:37:00,76.0,69.4,29.65,North,355,0.0,0.0,80,0.00,,,0.00,0,WeatherCatV1.15B25,2013-07-17 00:37:00,
2013-07-16 20:42:00,75.7,69.4,29.65,North,355,0.0,0.0,81,0.00,,,0.00,0,WeatherCatV1.15B25,2013-07-17 00:42:00,
2013-07-16 20:47:00,75.5,69.2,29.65,North,355,0.0,0.0,81,0.00,,,0.00,0,WeatherCatV1.15B25,2013-07-17 00:47:00,
2013-07-16 20:52:00,75.3,69.1,29.65,North,355,0.0,1.0,81,0.00,,,0.00,0,WeatherCatV1.15B25,2013-07-17 00:52:00,
2013-07-16 20:57:00,75.0,68.8,29.66,North,355,0.0,0.0,81,0.00,,,0.00,0,WeatherCatV1.15B25,2013-07-17 00:57:00,
2013-07-16 21:02:00,74.8,68.6,29.65,North,355,0.0,1.0,81,0.00,,,0.00,0,WeatherCatV1.15B25,2013-07-17 01:02:00,
2013-07-16 21:07:00,74.6,68.7,29.66,North,355,0.0,0.0,82,0.00,,,0.00,0,WeatherCatV1.15B25,2013-07-17 01:07:00,
2013-07-16 21:12:00,74.3,68.4,29.66,North,355,0.0,0.0,82,0.00,,,0.00,0,WeatherCatV1.15B25,2013-07-17 01:12:00,
2013-07-16 21:17:00,74.1,68.2,29.66,North,355,0.0,0.0,82,0.00,,,0.00,0,WeatherCatV1.15B25,2013-07-17 01:17:00,
2013-07-16 21:22:00,73.9,68.4,29.67,North,355,0.0,0.0,83,0.00,,,0.00,0,WeatherCatV1.15B25,2013-07-17 01:22:00,
2013-07-16 21:27:00,73.8,68.3,29.67,North,355,0.0,0.0,83,0.00,,,0.00,0,WeatherCatV1.15B25,2013-07-17 01:27:00,
2013-07-16 21:32:00,73.7,68.6,29.66,North,355,0.0,0.0,84,0.00,,,0.00,0,WeatherCatV1.15B25,2013-07-17 01:32:00,
2013-07-16 21:37:00,73.5,68.4,29.67,North,355,0.0,0.0,84,0.00,,,0.00,0,WeatherCatV1.15B25,2013-07-17 01:37:00,
2013-07-16 21:42:00,73.3,68.2,29.66,North,355,1.0,1.0,84,0.00,,,0.00,0,WeatherCatV1.15B25,2013-07-17 01:42:00,
2013-07-16 21:47:00,73.0,67.9,29.67,North,355,0.0,0.0,84,0.00,,,0.00,0,WeatherCatV1.15B25,2013-07-17 01:47:00,
2013-07-16 21:52:00,72.9,68.1,29.67,North,355,0.0,0.0,85,0.00,,,0.00,0,WeatherCatV1.15B25,2013-07-17 01:52:00,
2013-07-16 21:57:00,72.6,68.2,29.67,North,355,0.0,0.0,86,0.00,,,0.00,0,WeatherCatV1.15B25,2013-07-17 01:57:00,
2013-07-16 22:02:00,72.5,67.7,29.67,North,355,0.0,0.0,85,0.00,,,0.00,0,WeatherCatV1.15B25,2013-07-17 02:02:00,
2013-07-16 22:07:00,72.3,67.9,29.67,North,355,0.0,0.0,86,0.00,,,0.00,0,WeatherCatV1.15B25,2013-07-17 02:07:00,
2013-07-16 22:12:00,72.2,67.8,29.67,North,355,0.0,0.0,86,0.00,,,0.00,0,WeatherCatV1.15B25,2013-07-17 02:12:00,
2013-07-16 22:17:00,72.1,67.7,29.67,North,355,0.0,0.0,86,0.00,,,0.00,0,WeatherCatV1.15B25,2013-07-17 02:17:00,
2013-07-16 22:22:00,71.9,67.5,29.67,North,355,0.0,0.0,86,0.00,,,0.00,0,WeatherCatV1.15B25,2013-07-17 02:22:00,
2013-07-16 22:27:00,71.8,67.7,29.67,North,355,0.0,0.0,87,0.00,,,0.00,0,WeatherCatV1.15B25,2013-07-17 02:27:00,
2013-07-16 22:32:00,71.6,67.5,29.67,North,355,0.0,0.0,87,0.00,,,0.00,0,WeatherCatV1.15B25,2013-07-17 02:32:00,
2013-07-16 22:37:00,71.5,67.4,29.67,North,355,0.0,1.0,87,0.00,,,0.00,0,WeatherCatV1.15B25,2013-07-17 02:37:00,
2013-07-16 22:42:00,71.3,67.2,29.67,North,355,0.0,0.0,87,0.00,,,0.00,0,WeatherCatV1.15B25,2013-07-17 02:42:00,
2013-07-16 22:47:00,71.3,67.2,29.67,North,355,0.0,0.0,87,0.00,,,0.00,0,WeatherCatV1.15B25,2013-07-17 02:47:00,
2013-07-16 22:52:00,71.1,67.4,29.67,North,355,0.0,0.0,88,0.00,,,0.00,0,WeatherCatV1.15B25,2013-07-17 02:52:00,
2013-07-16 22:57:00,71.0,67.3,29.67,North,355,0.0,0.0,88,0.00,,,0.00,0,WeatherCatV1.15B25,2013-07-17 02:57:00,
2013-07-16 23:02:00,70.9,67.2,29.67,North,355,0.0,0.0,88,0.00,,,0.00,0,WeatherCatV1.15B25,2013-07-17 03:02:00,
2013-07-16 23:07:00,70.8,67.1,29.67,North,355,0.0,0.0,88,0.00,,,0.00,0,WeatherCatV1.15B25,2013-07-17 03:07:00,
2013-07-16 23:12:00,70.7,67.0,29.67,North,355,0.0,1.0,88,0.00,,,0.00,0,WeatherCatV1.15B25,2013-07-17 03:12:00,
2013-07-16 23:17:00,70.5,66.8,29.67,North,355,0.0,0.0,88,0.00,,,0.00,0,WeatherCatV1.15B25,2013-07-17 03:17:00,
2013-07-16 23:22:00,70.4,66.7,29.67,North,355,0.0,1.0,88,0.00,,,0.00,0,WeatherCatV1.15B25,2013-07-17 03:22:00,
2013-07-16 23:27:00,70.2,66.5,29.67,North,355,0.0,0.0,88,0.00,,,0.00,0,WeatherCatV1.15B25,2013-07-17 03:27:00,
2013-07-16 23:32:00,70.1,66.4,29.68,North,355,0.0,0.0,88,0.00,,,0.00,0,WeatherCatV1.15B25,2013-07-17 03:32:00,
2013-07-16 23:37:00,70.0,66.6,29.67,North,355,0.0,0.0,89,0.00,,,0.00,0,WeatherCatV1.15B25,2013-07-17 03:37:00,
2013-07-16 23:42:00,69.9,66.2,29.68,North,355,0.0,0.0,88,0.00,,,0.00,0,WeatherCatV1.15B25,2013-07-17 03:42:00,
2013-07-16 23:47:00,69.7,66.3,29.68,North,355,0.0,1.0,89,0.00,,,0.00,0,WeatherCatV1.15B25,2013-07-17 03:47:00,
2013-07-16 23:52:00,69.5,66.1,29.68,North,355,0.0,0.0,89,0.00,,,0.00,0,WeatherCatV1.15B25,2013-07-17 03:52:00,
2013-07-16 23:57:00,69.4,66.3,29.68,North,355,0.0,0.0,90,0.00,,,0.00,0,WeatherCatV1.15B25,2013-07-17 03:57:00,